Location: Belfast
(54.5830°N, 5.9330°W)
Time: 14:09:10
(UTC+00:00)

Coronas F rocket - Visible Passes

Search period start: 24 March 2017 00:00
Search period end: 03 April 2017 01:00
Orbit: 249 x 253 km, 82.4° (Epoch: 22 March)

Date Brightness Start Highest point End Pass type
(mag) Time Alt. Az. Time Alt. Az. Time Alt. Az.
24 Mar 4.1 21:10:05 10° N 21:10:10 11° N 21:10:10 11° N visible
25 Mar 3.7 21:02:43 10° N 21:03:09 14° N 21:03:09 14° N visible
26 Mar 3.2 21:55:02 10° N 21:55:50 19° N 21:55:50 19° N visible
27 Mar 2.5 21:47:00 10° N 21:48:12 25° NNE 21:48:12 25° NNE visible
28 Mar 1.7 21:38:39 10° N 21:40:17 36° NNE 21:40:17 36° NNE visible
29 Mar 1.1 21:29:58 10° N 21:32:04 46° ENE 21:32:04 46° ENE visible
30 Mar 1.1 21:20:59 10° N 21:23:08 45° ENE 21:23:33 38° ESE visible
31 Mar 1.1 21:11:39 10° N 21:13:48 43° ENE 21:14:46 25° SE visible
01 Apr 1.2 21:02:00 10° N 21:04:08 41° ENE 21:05:42 15° SE visible
02 Apr 1.3 20:52:01 10° N 20:54:09 39° ENE 20:56:15 10° SSE visible
